| time (UTC) | temp F | wind direction | speed knots | gust knots | rain 1hr in | rain 24hr in | rain mn in | humidity % | barometer mb |
| 20260508004601 | 52 | 42 | 0.0 | 0.0 | 0.00 | 0.01 | 0.01 | 43 | 1006.9 |
| 20260508003051 | 53 | 40 | 0.0 | 0.0 | 0.00 | 0.01 | 0.01 | 43 | 1006.7 |
| 20260508001550 | 54 | 40 | 0.0 | 0.0 | 0.00 | 0.01 | 0.01 | 40 | 1006.6 |
| 20260508000043 | 55 | 264 | 0.0 | 0.0 | 0.00 | 0.02 | 0.01 | 41 | 1006.4 |
| 20260507234539 | 55 | 116 | 0.0 | 0.9 | 0.00 | 0.02 | 0.01 | 40 | 1006.2 |
| 20260507233033 | 56 | 119 | 0.0 | 0.0 | 0.00 | 0.02 | 0.01 | 37 | 1006.1 |
| 20260507231529 | 57 | 321 | 0.0 | 0.9 | 0.00 | 0.02 | 0.01 | 39 | 1006.0 |
| 20260507230025 | 58 | 279 | 0.0 | 0.0 | 0.00 | 0.04 | 0.01 | 37 | 1006.0 |
| 20260507224521 | 59 | 221 | 0.0 | 0.9 | 0.00 | 0.04 | 0.01 | 36 | 1005.9 |
| 20260507223016 | 59 | 224 | 0.0 | 0.9 | 0.00 | 0.04 | 0.01 | 33 | 1005.6 |
| 20260507221513 | 60 | 255 | 0.0 | 3.5 | 0.00 | 0.04 | 0.01 | 33 | 1005.5 |
| 20260507220011 | 61 | 266 | 0.0 | 3.5 | 0.00 | 0.13 | 0.01 | 32 | 1005.4 |
| 20260507214503 | 62 | 111 | 0.0 | 2.6 | 0.00 | 0.13 | 0.01 | 30 | 1005.4 |
| 20260507213059 | 64 | 240 | 0.0 | 0.9 | 0.00 | 0.13 | 0.01 | 32 | 1005.2 |
| 20260507211601 | 64 | 191 | 0.0 | 2.6 | 0.00 | 0.13 | 0.01 | 31 | 1005.4 |
| 20260507210104 | 64 | 243 | 0.0 | 2.6 | 0.00 | 0.24 | 0.01 | 32 | 1005.1 |
| 20260507204546 | 64 | 256 | 0.0 | 5.2 | 0.00 | 0.24 | 0.01 | 32 | 1005.1 |
| 20260507203108 | 64 | 179 | 0.0 | 1.7 | 0.00 | 0.24 | 0.01 | 32 | 1005.1 |
| 20260507201537 | 64 | 240 | 0.0 | 0.9 | 0.00 | 0.24 | 0.01 | 33 | 1005.1 |
| 20260507200034 | 62 | 317 | 0.0 | 0.9 | 0.00 | 0.28 | 0.01 | 36 | 1005.3 |
| 20260507194530 | 63 | 189 | 0.0 | 1.7 | 0.00 | 0.28 | 0.01 | 35 | 1005.4 |
| 20260507193025 | 63 | 236 | 0.0 | 3.5 | 0.00 | 0.28 | 0.01 | 34 | 1005.4 |
| 20260507191520 | 64 | 36 | 0.0 | 5.2 | 0.00 | 0.28 | 0.01 | 36 | 1005.6 |
| 20260507190015 | 65 | 317 | 0.0 | 4.3 | 0.00 | 0.34 | 0.01 | 33 | 1005.7 |
| 20260507184510 | 64 | 334 | 0.0 | 7.0 | 0.00 | 0.34 | 0.01 | 32 | 1005.8 |
| 20260507183011 | 64 | 249 | 0.0 | 1.7 | 0.00 | 0.34 | 0.01 | 35 | 1005.8 |
| 20260507181503 | 65 | 267 | 0.0 | 2.6 | 0.00 | 0.34 | 0.01 | 34 | 1005.8 |
| 20260507180057 | 65 | 77 | 0.9 | 5.2 | 0.00 | 0.34 | 0.01 | 34 | 1005.8 |
| 20260507174559 | 65 | 180 | 0.0 | 7.0 | 0.00 | 0.34 | 0.01 | 35 | 1005.8 |
| 20260507173123 | 64 | 278 | 0.0 | 1.7 | 0.00 | 0.34 | 0.01 | 41 | 1005.7 |
| 20260507171545 | 64 | 265 | 0.0 | 3.5 | 0.00 | 0.34 | 0.01 | 37 | 1006.1 |
| 20260507170040 | 63 | 279 | 0.0 | 1.7 | 0.00 | 0.34 | 0.01 | 41 | 1006.2 |
| 20260507164537 | 65 | 299 | 0.0 | 1.7 | 0.00 | 0.34 | 0.01 | 49 | 1006.4 |
| 20260507163032 | 63 | 252 | 0.0 | 1.7 | 0.00 | 0.34 | 0.01 | 52 | 1006.4 |
| 20260507161526 | 63 | 243 | 0.0 | 0.9 | 0.00 | 0.34 | 0.01 | 51 | 1006.7 |
| 20260507160022 | 62 | 271 | 0.0 | 3.5 | 0.00 | 0.34 | 0.01 | 53 | 1006.7 |
| 20260507154517 | 61 | 205 | 0.0 | 0.9 | 0.00 | 0.34 | 0.01 | 52 | 1007.0 |
| 20260507153012 | 62 | 296 | 0.0 | 2.6 | 0.00 | 0.34 | 0.01 | 54 | 1007.2 |
| 20260507151508 | 62 | 240 | 0.0 | 2.6 | 0.00 | 0.34 | 0.01 | 51 | 1007.3 |
| 20260507150003 | 61 | 301 | 0.0 | 2.6 | 0.00 | 0.34 | 0.01 | 53 | 1007.4 |
| 20260507144618 | 61 | 239 | 0.0 | 4.3 | 0.00 | 0.34 | 0.01 | 54 | 1007.4 |
| 20260507143102 | 60 | 79 | 0.0 | 6.1 | 0.00 | 0.34 | 0.01 | 53 | 1007.2 |
| 20260507141558 | 60 | 348 | 0.0 | 3.5 | 0.00 | 0.34 | 0.01 | 53 | 1007.2 |
| 20260507140046 | 60 | 224 | 0.0 | 0.9 | 0.00 | 0.34 | 0.01 | 56 | 1007.2 |
| 20260507134544 | 59 | 179 | 0.0 | 2.6 | 0.00 | 0.34 | 0.01 | 56 | 1007.4 |
| 20260507133106 | 59 | 160 | 0.0 | 0.9 | 0.00 | 0.34 | 0.01 | 58 | 1007.6 |
| 20260507131536 | 58 | 212 | 0.0 | 0.0 | 0.00 | 0.34 | 0.01 | 57 | 1007.6 |
| 20260507130034 | 56 | 250 | 0.0 | 0.9 | 0.00 | 0.34 | 0.01 | 51 | 1007.6 |
| 20260507124527 | 55 | 229 | 0.0 | 0.9 | 0.00 | 0.34 | 0.01 | 46 | 1007.8 |
| 20260507123131 | 54 | 264 | 0.0 | 0.0 | 0.00 | 0.34 | 0.01 | 48 | 1008.0 |
| 20260507121514 | 52 | 228 | 0.0 | 0.9 | 0.00 | 0.34 | 0.01 | 31 | 1007.9 |
| 20260507120010 | 51 | 237 | 0.0 | 0.0 | 0.00 | 0.34 | 0.01 | 8 | 1008.0 |
| 20260507114505 | 50 | 232 | 0.0 | 0.0 | 0.00 | 0.34 | 0.01 | 1 | 1007.9 |
| 20260507113005 | 50 | 246 | 0.0 | 0.0 | 0.00 | 0.34 | 0.01 | 1 | 1008.0 |
| 20260507111606 | 49 | 204 | 0.0 | 0.0 | 0.00 | 0.34 | 0.01 | 1 | 1007.8 |
| 20260507110053 | 49 | 120 | 0.0 | 0.0 | 0.00 | 0.34 | 0.01 | 1 | 1007.8 |
| 20260507104548 | 48 | 120 | 0.0 | 0.0 | 0.00 | 0.34 | 0.01 | 1 | 1007.6 |
| 20260507103048 | 48 | 292 | 0.0 | 0.0 | 0.00 | 0.34 | 0.01 | 1 | 1007.8 |
| 20260507101544 | 48 | 292 | 0.0 | 0.0 | 0.00 | 0.34 | 0.01 | 1 | 1007.6 |
| 20260507100037 | 48 | 169 | 0.0 | 0.0 | 0.00 | 0.34 | 0.01 | 1 | 1007.8 |
| 20260507094536 | 49 | 183 | 0.0 | 0.0 | 0.00 | 0.34 | 0.01 | 1 | 1007.6 |
| 20260507093026 | 49 | 65 | 0.0 | 0.0 | 0.00 | 0.34 | 0.01 | 1 | 1007.7 |
| 20260507091528 | 49 | 44 | 0.0 | 0.0 | 0.01 | 0.34 | 0.01 | 1 | 1007.1 |
| 20260507090017 | 49 | 45 | 0.0 | 0.0 | 0.01 | 0.34 | 0.01 | 1 | 1007.2 |
| 20260507084513 | 49 | 354 | 0.0 | 0.0 | 0.01 | 0.34 | 0.01 | 1 | 1006.9 |
| 20260507083007 | 50 | 334 | 0.0 | 0.0 | 0.01 | 0.34 | 0.01 | 1 | 1006.8 |
| 20260507081503 | 50 | 233 | 0.0 | 0.0 | 0.00 | 0.33 | 0.00 | 1 | 1006.9 |
| 20260507080100 | 50 | 141 | 0.0 | 0.0 | 0.00 | 0.33 | 0.00 | 1 | 1007.0 |
| 20260507074557 | 50 | 6 | 0.0 | 0.0 | 0.00 | 0.33 | 0.00 | 1 | 1006.7 |
| 20260507073101 | 50 | 304 | 0.0 | 0.0 | 0.00 | 0.33 | 0.00 | 1 | 1006.5 |
| 20260507071545 | 51 | 340 | 0.0 | 0.9 | 0.00 | 0.33 | 0.00 | 1 | 1006.7 |
| 20260507070051 | 51 | 107 | 0.0 | 0.0 | 0.00 | 0.33 | 0.00 | 1 | 1006.4 |
| 20260507064546 | 51 | 230 | 0.0 | 0.0 | 0.00 | 0.33 | 0.00 | 1 | 1006.2 |
| 20260507063036 | 52 | 250 | 0.0 | 0.9 | 0.00 | 0.33 | 0.00 | 1 | 1006.3 |
| 20260507061529 | 52 | 282 | 0.0 | 0.0 | 0.00 | 0.33 | 0.00 | 1 | 1006.4 |
| 20260507060024 | 52 | 256 | 0.0 | 0.0 | 0.00 | 0.33 | 0.00 | 1 | 1006.4 |
| 20260507054519 | 52 | 247 | 0.0 | 0.0 | 0.00 | 0.33 | 0.00 | 1 | 1006.3 |
| 20260507053014 | 53 | 264 | 0.0 | 0.0 | 0.00 | 0.33 | 0.00 | 1 | 1006.3 |
| 20260507051514 | 53 | 347 | 0.0 | 0.9 | 0.00 | 0.33 | 0.00 | 1 | 1005.9 |
| 20260507050015 | 54 | 236 | 0.0 | 0.0 | 0.00 | 0.33 | 0.00 | 1 | 1006.1 |
| 20260507044502 | 55 | 265 | 0.0 | 0.0 | 0.00 | 0.33 | 0.00 | 1 | 1006.3 |
| 20260507043057 | 55 | 239 | 0.0 | 0.0 | 0.00 | 0.33 | 0.00 | 1 | 1006.0 |
| 20260507041554 | 56 | 235 | 0.0 | 0.0 | 0.00 | 0.33 | 0.00 | 1 | 1005.9 |
| 20260507040049 | 56 | 77 | 0.0 | 0.0 | 0.00 | 0.33 | 0.33 | 1 | 1005.6 |
| 20260507034546 | 57 | 237 | 0.0 | 0.0 | 0.00 | 0.33 | 0.33 | 1 | 1005.3 |
| 20260507033050 | 58 | 255 | 0.0 | 0.9 | 0.00 | 0.33 | 0.33 | 1 | 1005.7 |
| 20260507031551 | 59 | 181 | 0.0 | 0.9 | 0.00 | 0.33 | 0.33 | 1 | 1005.5 |
| 20260507030033 | 60 | 258 | 0.0 | 0.0 | 0.00 | 0.33 | 0.33 | 1 | 1005.1 |
| 20260507024529 | 60 | 179 | 0.0 | 0.9 | 0.00 | 0.33 | 0.33 | 1 | 1004.8 |
| 20260507023026 | 60 | 239 | 0.0 | 2.6 | 0.00 | 0.33 | 0.33 | 1 | 1004.8 |
| 20260507021520 | 60 | 132 | 0.0 | 0.9 | 0.00 | 0.33 | 0.33 | 1 | 1004.7 |
| 20260507020022 | 60 | 231 | 0.0 | 0.0 | 0.00 | 0.33 | 0.33 | 1 | 1005.0 |
| 20260507014512 | 60 | 238 | 0.0 | 0.9 | 0.00 | 0.33 | 0.33 | 1 | 1005.1 |
| 20260507013008 | 60 | 249 | 0.0 | 0.9 | 0.00 | 0.33 | 0.33 | 1 | 1005.1 |
| 20260507011506 | 60 | 268 | 0.0 | 1.7 | 0.00 | 0.33 | 0.33 | 1 | 1005.3 |
| 20260507010058 | 60 | 185 | 0.0 | 0.9 | 0.00 | 0.33 | 0.33 | 1 | 1005.2 |